Reflectivity
-20 -20 -20 -20 -20 -20 -20 -20 -20 -20 -20 -20 -20 -20 -20 -20 -20 -20 -20 -20 -20 -20 -20 -20 -20 -20 -20 -20 -20 -20 -20 -20 -20 -20 -20 -20 -20 -20 -20 -20 -20 -20 -20 -20
-20 -20 -20 -20 -20 -20 -20 -20 -20 -20 -20 -20 -20 -20 -20 -20 -20 -20 -20 -20 -20 -20 -20 -20 -20 -20 -20 -20 -20 -20 -20 -20 -20 -20 -20 -20 -20 -20 -20 -20 -20 -20 -20 -20
-20 -20 -20 -20 -20 -20 -20 -20 -20 -20 -20 -20 -20 -20 -20 -20 -20 -20 -20 -20 -20 -20 -20 -20 -20 -20 -20 -13 -20 -20 -20 -20 -20 -20 -20 -20 -20 -20 -20 -20 -20 -20 -20 -20
-20 -20 -20 -20 -20 -20 -20 -20 -20 -20 -20 -20 -20 -16 -20 -20 -20 -20 -20 -20 -20 -20 -20 -20 -20 -20 -12 1 -10 -20 -20 -20 -20 -20 -20 -20 -20 -20 -20 -20 -20 -20 -20 -20
-20 -20 -20 -20 -20 -20 -20 -20 -20 -20 -20 -20 -20 -20 -20 -20 -20 -20 -20 -20 -20 -20 -20 -20 -20 -20 -16 -10 -10 0 -20 -20 -20 -20 -20 -20 -20 -20 -20 -20 -20 -20 -20 -20
-20 -20 -20 -20 -20 -20 -20 -20 -20 -20 -20 -2 -20 -20 -20 -20 -18 -20 -20 -20 -20 -20 -20 -20 -20 -3 13 11 -1 -20 -20 -20 -20 -20 -20 -20 -20 -20 -20 -20 -20 -20 -20 -20
-20 -20 -20 -20 -20 -20 -20 -20 6 -20 -20 -20 -20 -20 -20 -8 -20 -20 -20 -20 -20 17 13 -11 -12 -3 6 1 -18 -1 7 6 -20 -20 -20 -20 -20 -20 -20 -20 -20 -20 -20 -20
-20 -20 -20 -20 -20 -20 -20 -18 -15 -20 -20 -20 -20 -20 -20 -20 -20 -20 -20 -20 17 26 32 31 32 36 11 1 3 12 3 -16 -20 -20 -20 -20 -20 -20 -20 -20 -20 -20 -20 -20
-20 -20 -20 -20 -20 -20 -20 -20 -20 21 -20 -20 -20 -20 -17 6 -20 -20 -20 -20 -20 15 26 17 12 4 32 28 23 23 20 8 -3 -15 -20 -20 -20 -20 -20 -20 -20 -20 -20 -20
-20 -20 -20 -20 -20 -20 -20 -20 -20 -20 -20 -20 -20 -20 -20 2 8 -16 -3 -20 -20 -8 -18 3 -20 11 12 4 -13 -6 17 20 16 7 8 3 -20 -18 -20 -16 -20 -20 -7 -20
-20 -20 -20 -20 -20 -20 -20 -20 -20 -20 -20 -20 -20 -20 -20 -20 -20 -20 -19 -20 -20 -20 -20 -20 -20 -9 -14 -16 -20 -19 -20 -20 -20 -18 -8 -20 -20 -20 -20 -16 -8 -6 -11 -20
-16 9 -20 -20 -6 -20 -20 -20 -20 -20 -20 -20 -20 -20 -20 -20 -20 -20 -20 -20 -20 -20 -20 -20 -20 -20 -20 -20 -20 -20 -16 -20 -20 -20 -20 -13 -3 -20 -12 2 0 -1 -11 -7
11 -20 -20 -20 -5 -18 -20 -20 -20 -20 -20 -20 -20 -20 20 4 11 -20 -20 -20 -20 -20 -20 -20 -20 -20 -20 -20 -20 -20 -20 -18 -20 -20 -16 -7 -17 -6 8 6 2 -1 -1 -12
-10 -20 -20 -20 -20 -20 -20 -20 -20 -18 -20 -20 -20 -20 -20 5 -13 -20 -20 -20 -20 -20 -20 -20 -20 -20 -20 -20 -20 -20 -20 -20 -20 -20 -20 -20 -20 1 -2 3 2 0 -11 -18
10 -20 -20 -20 -20 -20 -20 -20 -20 4 -19 3 -14 -16 -20 -20 -20 -20 -20 -20 -20 -20 -20 -20 -20 -20 -20 -20 -20 -20 -20 -20 -20 -20 -20 -20 -20 -20 -20 -17 -18 -12 -7 -10
-20 -2 -20 -20 -15 -15 -10 -20 -20 -20 -20 -20 -20 -20 -20 -20 -20 -20 -20 -20 -20 -20 -20 -20 -20 -20 -20 -20 -20 -20 -20 -20 -20 -20 -20 -20 -13 -10 -6 8 11 9 7 8
4 -18 -20 2 -20 -4 -20 -20 -20 -20 -20 -20 -20 -20 -20 -20 -20 -20 -20 -20 -20 -20 -20 -20 -20 -13 -3 -20 -20 -10 -20 -20 -20 -20 -20 -20 -17 -4 6 10 11 3 5 4
-12 -20 12 8 2 -20 -20 -20 -20 -20 -20 -20 -20 -20 -20 -20 -20 -20 -20 -20 -20 -20 -20 -20 -16 -8 -20 -20 -20 -20 -20 -20 -20 -20 -19 -10 -10 -12 -1 5 6 10 15 16
9 9 8 -6 -20 -20 -20 -20 -20 -20 -20 -20 -20 -20 -20 -20 -20 -20 -20 -20 -20 -20 -20 -20 -20 -20 -20 -20 -17 -9 -7 -19 -20 -17 -3 3 -1 -9 -15 -16 -14 -17 7 11
7 -5 -1 -20 -20 -20 -20 -20 -20 -20 -20 -20 -20 -20 -20 -20 -20 -20 -20 -20 -20 -20 -20 -20 -20 -20 -20 -20 -17 -3 2 -5 -17 -0 -3 -14 -20 -20 -20 -20 -20 -20 -12 -20
8 3 -12 -20 -20 -20 -20 -20 -20 -20 -20 -20 -20 -20 -20 -20 -20 -20 -20 -20 -20 -20 -19 -8 -9 1 -6 -1 1 5 4 0 1 -4 -20 -20 -20 -20 -20 -20 -20 -20 -20 -20
-13 -3 -17 -19 -20 -20 -20 -20 -20 -20 -20 -20 -20 -20 -20 -20 -18 -20 -20 -20 -20 -20 -2 6 7 6 4 7 8 6 9 3 -20 -20 -20 -20 -20 -20 -20 -20 -20 -20 -20 -20
-20 -20 -20 -20 -20 -20 -20 -20 -20 -20 -20 -20 -20 -20 -20 -20 -13 -6 -19 -18 -17 -18 2 6 10 12 13 14 12 11 5 -1 -20 -20 -20 -20 -20 -20 -20 -20 -20 -20 -20 -20
-12 -20 -20 -20 -20 -20 -20 -20 -20 -20 -20 -20 -20 -20 -20 -20 -20 -20 -20 -20 -20 2 7 9 11 9 6 4 1 -20 -20 -20 -20 -20 -20 -20 -20 -20 -20 -20 -20 -20 -20 -20
-20 -20 -20 -20 -17 -20 -20 -20 -20 -20 -20 -20 -20 -20 -20 -20 -20 -20 -20 -20 -16 -6 1 -8 2 5 0 -7 -19 -20 -20 -20 -20 -20 -20 -20 -20 -20 -20 -20 -20 -20 -16 -13
-20 -20 -20 -20 -20 -20 -20 -20 -20 -20 -20 -20 -20 -19 -20 -20 -20 -20 -20 -20 -20 -12 -19 -9 -3 -3 -20 -20 -20 -20 -20 -20 -20 -20 -20 -20 -20 -20 -20 -20 -20 -20 -20 -20
Wind_Speed
4 5 7 15 9 4 2 3 5 6 11 8 15 20 14 8 7 10 8 7 8 11 10 13 12 12 12 13 14 13 12 12 9 5 4 4 4 3 3 4 6 6 7 9
2 5 12 7 6 6 7 10 10 7 11 7 12 17 10 4 7 6 9 5 11 10 10 11 12 14 16 14 14 14 12 12 10 6 4 2 2 3 2 4 5 6 7 8
7 6 7 8 6 8 10 8 12 11 6 6 7 13 10 8 8 8 13 5 9 12 13 13 15 14 13 15 14 13 12 10 9 8 4 3 2 2 3 5 3 5 5 4
6 11 12 8 6 7 9 9 11 9 4 10 5 14 17 8 14 15 15 15 14 15 15 13 13 14 14 12 12 13 13 13 11 11 8 9 4 3 3 6 7 6 6 5
8 3 3 6 14 8 8 8 11 13 4 5 5 3 6 8 9 10 12 14 14 12 12 11 10 9 10 10 11 10 11 12 13 13 12 8 7 4 5 6 9 9 6 5
8 3 4 7 10 10 6 4 0 3 2 6 12 9 5 3 1 8 11 14 15 12 12 12 11 10 8 9 10 11 13 13 14 13 12 10 9 10 8 8 8 7 7 8
2 11 7 8 6 5 5 3 3 3 1 6 2 1 1 6 8 8 9 8 11 9 7 9 11 12 12 12 12 14 14 14 14 13 10 11 12 10 10 11 9 11 9 9
4 7 6 4 9 8 7 8 6 5 4 5 4 7 4 10 11 11 9 10 8 6 6 9 10 10 13 15 13 12 12 11 12 14 17 14 14 9 8 9 10 10 9 9
6 6 1 3 4 8 3 3 3 2 1 1 5 1 4 9 9 9 8 6 7 8 4 3 6 8 9 10 12 13 13 14 12 13 12 13 13 13 11 12 10 8 11 10
5 4 2 2 2 2 6 8 4 3 3 6 5 5 5 16 14 14 8 7 5 6 5 3 4 8 7 6 7 8 9 9 10 11 11 12 13 13 11 11 11 12 11 12
5 6 2 2 5 9 3 3 3 5 4 4 3 6 6 16 17 15 12 8 7 7 5 5 7 5 4 5 6 9 9 10 11 12 12 12 11 13 12 11 11 11 12 12
0 4 3 7 4 3 3 7 7 5 6 5 3 7 4 7 14 16 13 10 8 7 5 5 6 8 8 9 11 10 11 11 12 13 12 11 12 13 12 11 12 12 12 12
7 2 1 4 3 2 4 4 4 2 3 9 6 5 1 8 11 12 12 10 8 7 5 4 3 8 9 11 11 11 11 11 12 12 11 12 13 13 13 13 14 14 14 14
4 4 7 8 4 4 4 4 2 5 3 5 8 5 0 10 13 11 11 10 8 6 5 5 7 8 9 10 9 10 10 11 11 12 13 12 13 14 15 15 15 15 15 16
5 6 4 3 2 3 3 4 6 7 9 8 6 12 1 3 10 11 11 10 9 6 5 5 6 7 8 8 9 9 10 11 11 8 8 12 13 13 13 14 15 15 15 15
2 3 2 3 2 3 10 8 8 10 11 12 4 3 5 6 11 10 8 8 6 5 5 5 7 7 6 6 7 7 6 8 7 8 12 11 12 14 15 15 14 15 16 16
5 5 3 4 5 2 7 12 16 11 1 1 6 5 12 7 9 7 6 5 6 6 5 4 4 3 3 3 5 4 4 5 8 10 11 11 12 13 14 15 16 18 18 17
6 7 3 2 3 6 1 3 2 3 2 1 4 7 6 8 7 6 4 6 7 7 6 4 1 1 4 4 4 4 4 8 10 12 11 13 13 13 15 16 16 16 15 17
5 6 3 4 5 4 2 2 3 4 4 3 7 7 9 9 7 2 5 5 5 5 3 2 3 4 4 4 5 5 7 11 12 11 13 12 12 13 15 16 15 13 14 14
5 6 4 3 4 7 6 3 2 3 6 5 5 10 13 10 3 3 8 7 6 4 2 3 4 4 7 7 7 8 9 9 11 12 11 10 11 13 13 12 13 12 12 12
5 3 8 2 3 6 4 4 1 5 8 3 4 4 11 6 3 8 11 5 4 4 6 4 6 6 6 7 7 8 7 8 6 9 8 11 12 12 11 10 10 12 12 12
8 7 4 3 2 8 6 3 6 4 2 3 2 2 4 8 11 13 11 10 9 7 6 6 6 6 6 7 6 7 8 5 5 3 9 10 10 9 9 11 10 11 13 12
2 7 7 6 6 1 2 3 1 2 4 3 4 0 9 12 11 10 10 9 7 8 6 6 6 6 7 7 6 6 5 5 6 8 7 6 8 8 9 10 11 10 11 12
1 2 4 4 2 4 4 4 4 4 3 3 5 6 7 11 9 10 9 8 8 7 6 6 6 7 7 7 8 6 7 7 9 9 8 6 7 8 10 9 9 10 11 11
3 5 7 3 3 4 4 4 7 5 8 9 6 6 9 11 9 9 9 8 7 6 6 7 6 7 7 6 7 7 9 8 9 8 7 8 7 9 8 9 10 10 12 14
1 5 5 5 9 4 6 7 10 9 8 8 11 8 6 9 9 10 9 7 6 7 7 7 7 7 5 6 6 8 9 9 7 7 6 6 6 6 7 7 7 19 21 24
Wind_Direction
171 155 197 219 206 212 330 264 253 267 278 286 277 283 294 286 306 322 299 315 83 76 61 54 35 27 30 44 49 46 35 21 27 9 359 9 13 347 40 49 21 31 8 354
33 232 227 213 227 229 260 273 275 268 259 255 285 287 286 253 268 268 290 327 126 117 87 77 61 45 34 33 36 29 27 22 16 15 3 347 298 299 351 40 7 31 15 349
177 224 219 205 242 252 249 255 271 267 267 239 271 290 304 310 280 8 6 22 83 71 75 58 46 47 47 33 25 27 16 8 8 0 350 313 311 9 20 3 351 355 342 336
235 234 238 215 222 223 255 247 264 293 323 290 102 300 301 352 39 44 38 48 56 59 55 48 41 39 34 29 32 18 15 2 4 2 9 27 20 346 347 322 314 328 327 317
233 243 217 216 239 222 248 241 274 292 269 308 178 221 253 40 49 54 61 62 58 63 66 54 43 40 34 24 21 22 14 0 357 357 5 2 347 320 323 322 316 321 325 323
228 242 199 220 257 235 246 289 82 23 81 276 288 180 279 12 144 92 63 62 60 40 49 47 35 29 21 21 18 16 13 3 353 351 355 341 336 337 338 327 321 324 322 322
210 242 245 203 234 269 177 141 273 311 81 237 240 237 213 133 102 110 93 69 62 39 35 44 27 16 8 7 13 12 4 0 349 342 329 342 337 332 324 326 322 321 317 317
174 316 190 178 180 194 189 168 173 234 217 262 321 253 240 145 141 139 144 130 109 78 42 29 11 18 8 6 6 7 356 345 338 344 351 343 336 328 319 322 321 309 306 303
184 243 217 199 159 142 184 163 195 115 290 267 224 185 221 169 176 186 171 163 156 147 113 60 14 28 15 355 347 354 353 345 339 349 340 336 331 331 322 319 312 303 300 299
242 286 220 213 95 8 157 163 80 7 246 240 241 235 230 192 200 198 199 201 172 138 124 94 36 32 12 345 333 350 338 331 339 337 340 340 334 333 328 323 321 316 309 307
176 184 205 96 207 181 145 189 86 137 169 214 287 254 203 196 197 193 194 181 159 120 101 52 35 23 1 357 351 353 333 348 351 348 338 340 338 345 344 339 331 325 319 318
148 139 179 226 296 245 180 190 156 157 223 238 184 259 247 193 165 178 185 143 117 95 67 43 18 6 5 5 1 349 352 356 357 347 344 343 347 351 348 344 342 339 337 331
194 232 75 312 340 326 226 202 194 139 125 216 231 260 207 104 150 164 138 120 107 101 78 44 4 21 13 6 0 348 351 353 352 349 349 357 358 357 352 357 357 353 349 347
101 178 191 214 195 143 181 190 203 178 185 259 236 284 297 154 155 135 119 103 101 95 74 42 29 21 12 5 355 346 354 358 350 1 5 5 5 4 1 1 1 1 2 358
159 227 204 232 206 171 184 198 216 236 204 240 266 249 182 183 147 128 121 125 117 94 71 54 39 24 10 2 352 351 356 353 351 342 356 14 9 3 5 2 5 4 4 0
167 235 52 318 278 251 258 230 254 256 253 255 221 192 128 95 111 114 116 119 114 108 82 57 36 19 3 1 8 360 342 343 328 360 17 11 11 9 8 8 4 4 5 4
153 121 116 257 232 256 266 205 230 238 190 218 198 199 151 148 128 124 114 132 138 113 99 71 37 344 355 1 323 328 333 333 11 23 17 13 19 16 8 8 11 9 5 1
164 129 167 200 140 234 7 41 349 147 96 19 87 126 130 137 101 112 129 138 121 114 98 73 89 200 285 285 293 303 327 23 28 30 18 20 21 18 15 11 9 6 5 5
208 150 173 178 203 328 318 239 175 139 253 197 146 124 130 124 117 118 118 107 114 108 107 174 247 250 295 325 342 18 32 30 33 30 25 20 22 25 21 14 2 0 5 5
157 187 152 149 172 215 238 148 124 119 286 174 150 160 160 153 204 212 142 125 122 126 130 59 7 5 25 10 18 37 37 38 31 30 24 21 27 31 22 11 3 1 1 3
162 163 190 134 210 283 175 159 155 99 242 145 125 147 171 197 207 140 131 120 130 130 113 85 54 40 20 17 30 41 36 34 28 32 29 32 30 30 16 4 9 11 8 6
164 152 172 98 115 264 144 94 175 191 39 117 80 250 209 130 129 135 139 151 162 152 118 92 72 48 23 23 29 39 36 4 19 40 37 34 25 24 20 16 13 18 20 17
208 170 174 173 208 229 77 135 122 120 135 167 133 138 136 137 134 130 131 131 116 108 97 87 79 65 38 27 24 31 351 22 31 39 35 28 24 27 31 30 20 25 27 25
22 130 101 128 170 167 138 97 75 52 104 112 115 113 116 119 119 117 114 115 112 107 99 95 85 67 50 33 33 22 31 32 40 40 32 33 44 43 37 37 32 29 30 32
195 127 134 89 135 129 193 141 119 110 117 117 89 109 122 119 115 118 113 111 108 99 102 97 90 75 53 33 31 24 31 34 50 42 34 36 36 42 42 37 36 35 30 39
185 155 168 211 171 143 153 145 130 144 144 142 127 113 108 118 119 114 108 105 107 112 111 102 90 76 46 40 31 29 33 40 38 44 37 30 38 35 44 35 36 37 44 43